sat.trackr.live / text

‹ back to catalog

STARLINK-31955

NORAD 59939 · 2024-106T

PAYLOAD ACTIVE UNKNOWN

§ Identity

Operator
Country
US
Launch date
2024-06-01
Launch site
AFETR
Launch vehicle
Mass (kg)
RCS (m²)

Purposes: comms

External: N2YO · Heavens-Above · Gunter

§ Orbital elements

Epoch: 2026-09-21T03:52:44.222016Z

Period
94.17 min
Inclination
43.0019°
Eccentricity
0.0002222
Mean motion
15.29158238 rev/d
Perigee alt
476.8 km
Apogee alt
479.9 km
Semi-major
6,856.5 km
B*
9.8011e-4
RAAN
308.0808°
Arg perigee
9.1920°
Mean anomaly
350.8973°
Rev number
13,046

§ Raw data

STARLINK-319551 59939U 24106T   26264.16162294  .00028149  00000+0  98011-3 0  99942 59939  43.0019 308.0808 0002222   9.1920 350.8973 15.29158238130463

JSON: /api/v1/satellites/59939 · /tle

For live sub-satellite position, see the globe view (requires WebGL).

§ Visibility from observer

Set your observer location to see the next 7 days of passes ≥ 10°. The values pass through the URL so the page stays shareable.

No JS? Fill the form by hand. The geolocation button needs JavaScript.